Wind_Speed
5 5 6 6 6 7 7 7 7 7 7 8 8 9 9 10 10 10 10 10 11 12 13 13 14 14 15 15 16 16 17 18 19 19 19 20 20 21
6 7 7 7 7 8 9 9 9 9 9 9 10 10 10 11 11 11 11 12 13 13 14 15 16 16 17 17 18 19 20 20 21 21 21 22 22 22
9 9 9 9 9 10 10 10 11 11 11 11 11 11 12 12 13 13 14 14 15 15 16 16 17 18 19 20 20 21 21 22 22 23 23 24 25 25
11 11 11 11 11 12 12 13 13 13 13 13 14 14 14 15 15 16 16 16 17 18 18 19 19 20 20 21 22 22 23 24 25 25 25 25 26 27
13 12 12 13 13 14 14 14 15 15 16 16 16 16 17 17 18 18 18 19 19 20 20 20 21 22 22 23 23 24 25 26 26 27 28 28 28 29
14 14 15 15 15 15 16 16 17 17 18 18 18 19 19 20 20 20 21 21 21 22 22 23 23 24 24 25 26 26 27 27 28 28 29 30 31 31
15 16 16 16 16 17 17 18 18 19 20 20 21 21 22 22 22 23 23 24 24 25 25 25 26 27 28 28 29 29 30 30 31 32 32 33 34 34
16 17 17 17 18 19 19 20 20 21 21 22 23 24 24 25 25 26 26 27 27 28 28 29 30 30 32 32 33 33 34 35 35 36 36 37 38 39
19 19 19 20 20 21 21 22 22 23 23 24 25 25 26 27 27 28 29 29 30 31 32 32 33 34 35 36 36 37 38 39 40 40 40 40 41 41
21 21 21 22 22 23 23 23 24 24 25 26 27 27 28 29 29 30 31 31 32 33 34 35 36 37 37 38 40 40 41 42 42 42 43 43 43 43
22 22 22 23 24 24 25 25 26 27 28 28 29 30 31 32 32 33 33 34 34 35 37 38 38 39 40 41 41 42 43 43 44 44 44 45 45 45
23 23 23 24 25 26 27 27 28 29 30 30 31 32 33 34 34 35 36 37 37 38 39 40 41 42 42 42 43 43 44 45 45 46 46 47 47 47
24 25 25 26 28 28 28 29 30 31 31 32 33 34 35 36 37 38 39 40 40 41 42 43 43 44 44 43 43 45 46 46 47 47 48 48 49 49
26 26 27 29 30 30 30 31 32 33 33 34 35 36 37 38 40 41 42 43 44 44 45 46 46 46 46 46 46 46 47 48 49 49 50 50 51 51
27 28 29 30 31 32 32 33 34 34 35 36 37 38 39 41 42 43 44 46 46 47 47 48 48 48 49 49 50 50 50 50 51 51 52 52 52 53
29 30 31 32 33 34 34 35 35 36 37 38 39 40 41 42 44 45 46 47 48 47 48 49 50 51 52 52 52 52 53 53 53 53 54 53 53 54
30 31 32 33 34 35 36 37 38 38 39 40 41 41 42 43 45 46 47 48 48 48 49 50 51 53 54 54 55 55 55 55 55 55 55 54 54 55
32 32 33 34 35 36 37 37 38 39 40 41 42 43 44 45 46 47 47 48 49 50 51 52 53 54 54 55 56 56 55 55 55 55 56 56 55 56
33 33 35 35 36 37 38 39 40 41 42 42 43 44 45 46 47 47 48 49 50 51 53 54 55 56 56 55 54 56 56 56 56 56 57 57 57 57
34 35 36 37 38 39 40 41 41 42 43 44 45 46 47 48 48 48 49 50 51 53 54 55 56 56 57 56 55 55 57 58 58 57 57 58 59 59
36 36 37 38 39 40 41 42 42 44 44 45 46 47 49 49 49 50 51 52 53 54 54 55 56 56 57 57 56 56 57 58 59 59 59 58 58 58
37 38 39 40 40 41 42 43 44 45 46 46 47 48 50 50 51 51 52 54 54 55 55 55 56 56 56 57 57 57 57 57 58 58 59 59 59 57
39 40 41 41 42 43 44 45 46 46 47 48 48 49 50 51 52 53 54 55 55 55 56 56 56 56 56 57 56 56 55 55 55 56 56 57 57 57
Wind_Direction
295 297 296 287 270 266 265 262 266 269 269 270 273 278 282 281 283 281 281 285 282 279 277 275 274 277 278 275 272 270 270 270 269 270 270 270 267 265
294 293 292 287 275 274 270 267 268 270 273 274 276 278 280 282 284 282 280 281 282 284 284 281 278 276 277 279 279 276 274 273 273 273 274 274 273 271
288 287 285 281 278 276 273 272 272 273 275 275 277 278 281 283 283 283 282 281 281 283 284 284 282 280 279 278 279 279 277 278 278 277 276 275 274 272
283 281 280 279 278 277 276 274 274 276 277 278 278 278 280 282 283 283 283 283 284 284 283 283 283 283 283 282 281 280 279 279 279 278 277 277 276 273
281 279 278 278 278 276 276 276 277 277 278 279 280 282 283 285 286 286 286 286 286 286 285 284 284 284 284 284 283 283 282 280 279 279 278 277 277 275
280 278 277 277 276 275 276 277 277 277 279 280 281 282 284 285 285 285 285 285 286 286 286 286 285 285 285 285 285 284 284 283 282 281 280 279 278 276
279 278 278 277 277 277 277 278 278 278 279 280 281 283 284 284 285 285 285 285 286 287 287 287 287 286 286 286 286 285 285 284 284 283 282 281 280 279
279 279 279 278 278 278 278 279 279 279 280 281 282 283 284 284 285 285 285 285 286 286 287 287 288 288 287 286 286 285 285 285 284 283 282 282 281 280
279 278 278 278 278 279 279 280 280 280 280 281 282 283 284 284 284 284 285 285 286 286 287 287 288 288 287 287 286 286 286 285 285 284 283 282 282 281
279 279 279 279 279 280 281 282 283 282 282 282 283 284 285 285 285 285 285 286 287 287 287 287 287 287 288 287 287 286 286 286 285 284 283 283 282 282
281 280 280 280 282 283 283 283 283 283 283 283 285 285 285 286 286 286 286 286 287 288 288 287 287 287 287 287 287 286 286 286 285 284 284 284 283 282
284 283 283 284 284 285 284 283 283 283 284 284 285 286 286 287 287 287 286 287 287 288 288 288 288 287 287 287 287 286 286 286 285 285 285 284 284 283
284 284 285 285 286 286 286 286 285 285 286 286 286 287 287 288 289 289 289 289 289 289 289 289 289 288 288 288 287 287 286 286 285 285 285 284 284 284
286 286 286 287 287 287 287 287 287 287 288 288 288 287 288 289 290 290 290 290 290 290 290 289 289 289 289 289 288 288 287 287 286 285 284 284 284 284
287 287 288 288 288 288 289 289 289 289 289 289 289 289 289 289 289 289 290 290 290 290 290 289 289 289 289 290 289 288 288 287 286 285 285 284 284 284
289 289 290 290 290 290 289 289 289 289 289 290 291 290 290 291 291 290 290 290 290 290 290 290 291 291 291 290 290 290 289 288 287 286 286 285 285 285
290 290 291 291 291 290 290 290 291 291 291 292 292 292 292 292 292 291 291 291 290 290 290 291 292 292 292 292 291 290 290 289 288 287 286 286 285 285
291 291 292 292 293 292 292 291 292 292 292 292 292 292 293 293 293 293 293 292 292 292 292 291 291 292 292 292 291 291 289 289 288 288 287 286 286 286
292 292 293 293 294 293 293 293 292 292 292 293 293 293 294 294 294 294 294 294 293 293 293 293 293 292 292 291 290 290 290 289 289 288 288 288 287 287
294 294 294 294 294 294 295 294 294 294 294 294 294 294 295 295 296 295 295 295 295 295 295 294 294 293 292 292 291 290 290 290 289 289 289 289 288 288
295 295 295 295 295 296 296 295 295 295 295 295 296 296 296 296 296 296 296 296 297 297 296 296 295 294 294 292 291 291 290 290 290 290 290 289 289 289
296 296 296 296 296 297 297 297 297 297 297 297 296 296 296 297 297 297 297 297 297 297 297 297 296 295 295 294 294 293 291 290 290 291 291 291 290 290
297 297 297 297 297 297 297 298 298 298 298 298 297 297 297 297 297 297 298 298 298 298 297 297 296 296 296 296 295 294 293 292 291 291 291 291 291 291
Height
5862 5861 5860 5860 5859 5860 5860 5860 5860 5860 5860 5859 5859 5858 5857 5856 5856 5855 5854 5854 5853 5852 5851 5850 5850 5849 5848 5848 5846 5846 5845 5845 5844 5844 5844 5843 5842 5841
5860 5860 5859 5858 5858 5858 5858 5858 5858 5858 5857 5856 5856 5855 5854 5853 5853 5852 5851 5850 5850 5849 5848 5847 5846 5845 5844 5844 5843 5842 5841 5840 5839 5839 5838 5837 5837 5836
5858 5858 5857 5856 5856 5855 5855 5855 5855 5855 5854 5854 5853 5852 5851 5850 5849 5848 5847 5847 5846 5845 5844 5843 5842 5841 5840 5839 5838 5837 5836 5835 5834 5833 5832 5831 5830 5829
5855 5855 5854 5853 5853 5853 5852 5852 5852 5851 5851 5850 5849 5848 5848 5847 5846 5844 5843 5842 5841 5840 5839 5838 5837 5836 5835 5833 5832 5831 5830 5829 5827 5826 5825 5824 5823 5822
5852 5851 5851 5850 5849 5849 5849 5848 5848 5847 5847 5846 5845 5844 5843 5842 5841 5840 5839 5838 5836 5835 5834 5833 5831 5830 5829 5827 5826 5825 5823 5822 5820 5819 5818 5816 5815 5814
5848 5847 5847 5846 5846 5845 5845 5844 5844 5843 5842 5842 5841 5840 5838 5837 5836 5835 5834 5832 5831 5829 5828 5826 5825 5824 5822 5821 5819 5818 5816 5814 5813 5811 5810 5808 5807 5806
5843 5843 5842 5842 5841 5841 5840 5840 5839 5838 5837 5837 5836 5835 5833 5832 5830 5829 5828 5826 5825 5823 5821 5820 5818 5817 5815 5813 5812 5810 5808 5806 5805 5803 5801 5799 5798 5796
5839 5838 5837 5837 5836 5836 5835 5834 5834 5833 5832 5831 5830 5829 5827 5826 5824 5822 5821 5820 5818 5817 5814 5813 5810 5809 5807 5805 5803 5801 5799 5796 5795 5793 5791 5789 5787 5785
5833 5833 5832 5831 5831 5830 5829 5829 5828 5827 5826 5824 5823 5822 5820 5819 5817 5815 5813 5812 5810 5808 5806 5804 5801 5799 5797 5794 5792 5790 5788 5785 5783 5781 5779 5777 5775 5773
5828 5827 5826 5826 5825 5824 5823 5822 5821 5820 5818 5817 5816 5814 5812 5811 5809 5807 5805 5803 5801 5799 5796 5795 5792 5789 5787 5784 5781 5778 5776 5773 5771 5769 5767 5765 5762 5760
5822 5821 5820 5819 5818 5817 5817 5816 5814 5813 5811 5809 5807 5805 5803 5801 5799 5797 5795 5793 5791 5789 5785 5783 5781 5778 5776 5773 5769 5766 5763 5760 5758 5755 5753 5751 5748 5746
5817 5815 5814 5813 5811 5810 5809 5808 5806 5805 5803 5801 5799 5797 5794 5792 5789 5787 5785 5782 5780 5778 5774 5771 5769 5766 5764 5761 5757 5753 5750 5747 5744 5741 5739 5736 5734 5731
5810 5809 5807 5806 5804 5802 5801 5799 5798 5796 5794 5792 5789 5787 5784 5781 5778 5775 5773 5770 5768 5765 5762 5758 5755 5752 5749 5748 5745 5740 5737 5733 5730 5727 5724 5721 5718 5716
5804 5802 5800 5798 5796 5794 5792 5790 5788 5786 5784 5782 5779 5776 5773 5770 5767 5764 5761 5757 5754 5751 5748 5744 5741 5738 5735 5732 5730 5727 5723 5719 5715 5712 5709 5706 5703 5700
5796 5794 5792 5790 5788 5785 5783 5780 5778 5775 5773 5770 5768 5765 5762 5758 5755 5752 5748 5744 5741 5737 5733 5729 5726 5723 5720 5717 5714 5711 5707 5704 5699 5696 5693 5690 5687 5683
5788 5786 5783 5781 5778 5776 5773 5770 5767 5765 5762 5759 5756 5753 5749 5746 5742 5738 5734 5731 5727 5724 5719 5714 5710 5707 5704 5700 5696 5693 5690 5686 5683 5679 5676 5673 5669 5666
5780 5777 5775 5772 5769 5766 5763 5760 5757 5753 5750 5747 5743 5740 5736 5732 5728 5724 5720 5716 5712 5709 5705 5700 5695 5691 5686 5683 5679 5676 5672 5668 5664 5660 5657 5655 5652 5648
5771 5768 5765 5762 5759 5755 5752 5749 5745 5742 5738 5735 5731 5727 5723 5719 5715 5710 5706 5701 5697 5693 5689 5685 5680 5676 5671 5666 5662 5657 5654 5650 5646 5642 5638 5636 5634 5630
5761 5758 5755 5752 5748 5745 5741 5738 5734 5730 5726 5722 5719 5714 5710 5706 5701 5697 5692 5687 5682 5678 5673 5668 5663 5658 5654 5651 5647 5640 5635 5632 5628 5625 5620 5616 5614 5611
5751 5748 5744 5741 5737 5734 5730 5726 5722 5718 5714 5710 5705 5701 5696 5691 5687 5682 5677 5672 5667 5662 5657 5652 5646 5640 5635 5632 5629 5625 5618 5613 5609 5605 5602 5597 5594 5590
5741 5738 5734 5730 5726 5722 5718 5714 5710 5706 5701 5696 5692 5687 5682 5677 5672 5667 5662 5657 5651 5646 5641 5635 5629 5623 5618 5613 5610 5607 5602 5595 5589 5585 5581 5578 5575 5571
5731 5727 5723 5719 5715 5711 5706 5702 5698 5693 5688 5683 5678 5673 5668 5663 5658 5652 5647 5641 5636 5630 5624 5619 5613 5606 5601 5596 5592 5588 5584 5578 5572 5566 5561 5557 5553 5550
5720 5716 5712 5707 5703 5698 5694 5689 5685 5680 5675 5670 5664 5659 5654 5648 5643 5637 5631 5625 5619 5614 5608 5602 5596 5590 5584 5578 5573 5569 5565 5560 5555 5550 5545 5539 5534 5530